HB9TQJ-6 Weather Reports


time (UTC)temp
C
wind
direction
speed
KPH
gust
KPH
rain 1hr
cm
rain 24hr
cm
rain mn
cm
humidity
%
barometer
mb
20260507164318 16 348 1.6 6.4 0.00 0.25 0.25 63 1013.3
20260507163315 16 345 1.6 6.4 0.00 0.25 0.25 62 1013.3
20260507162314 16 345 1.6 6.4 0.00 0.25 0.25 62 1013.3
20260507161311 16 321 1.6 3.2 0.00 0.25 0.25 62 1013.4
20260507160309 16 50 1.6 3.2 0.00 0.25 0.25 63 1013.3
20260507155327 16 24 1.6 3.2 0.00 0.25 0.25 63 1013.3
20260507154304 16 45 1.6 3.2 0.00 0.25 0.25 63 1013.3
20260507153303 16 0 1.6 6.4 0.00 0.25 0.25 62 1013.3
20260507152300 16 39 1.6 3.2 0.00 0.25 0.25 62 1013.2
20260507151258 17 45 1.6 3.2 0.00 0.25 0.25 59 1013.2
20260507150257 17 45 1.6 3.2 0.00 0.25 0.25 59 1013.2
20260507145255 17 52 1.6 3.2 0.00 0.25 0.25 58 1013.3
20260507144315 17 68 1.6 3.2 0.00 0.25 0.25 59 1013.2
20260507143317 17 90 1.6 3.2 0.00 0.25 0.25 58 1013.3
20260507142249 17 33 1.6 6.4 0.00 0.25 0.25 57 1013.3
20260507141247 17 60 1.6 3.2 0.00 0.25 0.25 60 1013.3
20260507140246 17 90 1.6 3.2 0.00 0.25 0.25 60 1013.3
20260507135306 17 38 1.6 3.2 0.00 0.25 0.25 60 1013.4
20260507134241 17 54 1.6 4.8 0.00 0.25 0.25 64 1013.5
20260507133239 17 54 1.6 4.8 0.00 0.25 0.25 64 1013.5
20260507132238 16 90 1.6 3.2 0.00 0.25 0.25 64 1013.6
20260507131258 16 45 1.6 3.2 0.00 0.30 0.25 63 1013.6
20260507130234 16 57 1.6 3.2 0.00 0.38 0.25 64 1013.7
20260507125232 16 57 1.6 3.2 0.00 0.41 0.25 64 1013.7
20260507124229 16 49 1.6 3.2 0.00 0.41 0.25 67 1013.8
20260507123226 16 59 1.6 3.2 0.00 0.43 0.25 67 1013.9
20260507122245 16 338 1.6 3.2 0.00 0.48 0.25 67 1013.8
20260507121223 16 90 1.6 3.2 0.00 0.51 0.25 68 1013.9
20260507120222 16 45 1.6 3.2 0.00 0.53 0.25 67 1014.0
20260507115220 16 90 1.6 1.6 0.00 0.58 0.25 69 1014.0
20260507114217 16 90 1.6 3.2 0.00 0.61 0.25 70 1014.1
20260507113215 16 90 1.6 3.2 0.00 0.66 0.25 70 1014.1
20260507112233 15 351 1.6 3.2 0.00 0.69 0.25 68 1014.0
20260507111231 16 57 1.6 3.2 0.00 0.71 0.25 70 1014.0
20260507110209 15 59 1.6 3.2 0.00 0.74 0.25 73 1014.2
20260507105208 15 59 1.6 3.2 0.00 0.76 0.25 73 1014.2
20260507104205 15 55 1.6 3.2 0.00 0.79 0.25 72 1014.1
20260507103203 15 90 1.6 3.2 0.00 0.79 0.25 73 1014.2
20260507102201 15 53 1.6 3.2 0.00 0.81 0.25 72 1014.2
20260507101227 15 26 1.6 4.8 0.00 0.84 0.25 72 1014.2
20260507100156 14 32 1.6 3.2 0.00 0.84 0.25 73 1014.3
20260507095156 14 34 1.6 3.2 0.00 0.84 0.25 71 1014.3
20260507094154 15 28 1.6 3.2 0.00 0.84 0.25 71 1014.3
20260507093152 15 90 1.6 3.2 0.00 0.84 0.25 73 1014.2
20260507092149 15 45 1.6 3.2 0.00 0.84 0.25 73 1014.1
20260507091147 15 45 1.6 3.2 0.00 0.84 0.25 73 1014.1
20260507090146 15 39 1.6 3.2 0.00 0.84 0.25 75 1014.1
20260507085144 15 29 1.6 3.2 0.00 0.84 0.25 76 1014.0
20260507084142 13 45 1.6 3.2 0.00 0.84 0.25 79 1013.9
20260507083159 13 45 1.6 3.2 0.00 0.84 0.25 79 1013.9
20260507082139 13 35 1.6 3.2 0.00 0.84 0.25 79 1013.9
20260507081136 13 45 1.6 1.6 0.00 0.84 0.25 80 1013.9
20260507080132 13 49 1.6 1.6 0.00 0.84 0.25 80 1013.9
20260507075130 12 25 1.6 3.2 0.00 0.84 0.25 81 1013.9
20260507074128 12 45 1.6 3.2 0.00 0.84 0.25 81 1013.8
20260507073126 12 34 1.6 3.2 0.00 0.84 0.25 82 1013.8
20260507072125 12 35 1.6 1.6 0.00 0.84 0.25 84 1013.7
20260507071143 11 56 1.6 1.6 0.00 0.84 0.25 84 1013.6
20260507070121 11 90 1.6 1.6 0.00 0.84 0.25 84 1013.5
20260507065119 11 52 1.6 1.6 0.00 0.84 0.25 85 1013.5
20260507064137 11 90 1.6 3.2 0.00 0.84 0.25 85 1013.5
20260507063115 11 49 1.6 1.6 0.00 0.84 0.25 86 1013.5
20260507062113 11 55 1.6 3.2 0.00 0.84 0.25 86 1013.4
20260507061112 11 49 1.6 3.2 0.00 0.84 0.25 86 1013.3
20260507060109 11 51 1.6 1.6 0.00 0.84 0.25 86 1013.3
20260507055107 11 49 1.6 3.2 0.03 0.84 0.25 86 1013.2
20260507054125 11 55 1.6 1.6 0.03 0.84 0.25 86 1013.0
20260507053103 11 45 1.6 1.6 0.03 0.84 0.25 86 1013.0
20260507052121 10 59 1.6 1.6 0.03 0.84 0.25 85 1012.9
20260507051059 10 59 1.6 3.2 0.03 0.84 0.25 86 1012.7
20260507050057 10 90 1.6 1.6 0.03 0.84 0.25 86 1012.6
20260507045054 10 56 1.6 1.6 0.00 0.84 0.23 86 1012.5
20260507044052 10 60 1.6 1.6 0.00 0.84 0.23 86 1012.4
20260507043051 10 90 1.6 1.6 0.00 0.84 0.23 86 1012.2
20260507042109 10 52 1.6 1.6 0.00 0.84 0.23 86 1012.2
20260507041047 10 90 1.6 3.2 0.00 0.84 0.23 86 1012.2
20260507040046 10 90 1.6 3.2 0.00 0.84 0.23 86 1012.1
20260507035043 11 45 1.6 1.6 0.00 0.84 0.23 86 1012.1
20260507034041 10 49 1.6 1.6 0.00 0.84 0.23 86 1012.0
20260507033039 10 49 1.6 1.6 0.03 0.84 0.23 86 1012.0
20260507032037 10 56 1.6 1.6 0.05 0.86 0.23 86 1012.0
20260507031036 10 90 1.6 3.2 0.08 0.86 0.23 85 1012.0
20260507030053 10 90 1.6 3.2 0.10 0.86 0.23 85 1012.0
20260507025032 11 57 1.6 1.6 0.10 0.86 0.23 85 1011.9
20260507024030 11 53 1.6 1.6 0.15 0.84 0.23 85 1011.9
20260507023034 11 45 1.6 3.2 0.15 0.84 0.20 85 1011.8
20260507022029 11 45 1.6 3.2 0.15 0.81 0.18 85 1011.8
20260507021024 11 59 1.6 1.6 0.13 0.79 0.15 84 1011.7
20260507020043 11 59 1.6 3.2 0.13 0.76 0.15 84 1011.6
20260507015039 11 90 1.6 1.6 0.10 0.74 0.13 84 1011.5
20260507014017 11 90 1.6 1.6 0.08 0.71 0.08 84 1011.5
20260507013036 11 90 1.6 1.6 0.05 0.69 0.05 84 1011.5
20260507012013 11 49 1.6 1.6 0.05 0.66 0.05 84 1011.5
20260507011011 11 50 1.6 1.6 0.03 0.66 0.03 84 1011.3
20260507010029 11 50 1.6 1.6 0.03 0.64 0.03 84 1011.3
20260507005007 11 49 1.6 1.6 0.00 0.64 0.00 84 1011.2
20260507004005 11 45 1.6 1.6 0.00 0.64 0.00 84 1011.2
20260507003004 11 90 1.6 3.2 0.00 0.64 0.00 84 1011.1
20260507001500 11 39 1.6 1.6 0.00 0.64 0.00 84 1011.1
20260507000458 11 45 1.6 3.2 0.00 0.64 0.00 84 1011.0
20260506235456 11 55 1.6 1.6 0.00 0.64 0.00 84 1011.0
20260506234454 11 59 1.6 1.6 0.00 0.64 0.00 84 1011.0
20260506233512 11 54 1.6 1.6 0.00 0.64 0.00 83 1011.0
20260506232450 11 49 1.6 1.6 0.00 0.64 0.00 83 1011.1
20260506231508 11 90 1.6 3.2 0.00 0.64 0.00 83 1011.1
20260506230447 11 56 1.6 1.6 0.00 0.64 0.00 83 1011.1
20260506225444 11 53 1.6 1.6 0.00 0.64 0.00 83 1011.0
20260506224443 11 90 1.6 1.6 0.00 0.64 0.00 82 1011.0
20260506223440 11 90 1.6 1.6 0.00 0.64 0.00 82 1010.9
20260506222458 11 90 1.6 3.2 0.00 0.64 0.00 82 1010.9
20260506221436 11 90 1.6 3.2 0.00 0.64 0.00 81 1010.9
20260506220435 11 90 1.6 3.2 0.00 0.64 0.00 81 1011.0
20260506215431 11 90 1.6 3.2 0.00 0.64 0.64 82 1011.0
20260506214430 11 90 1.6 3.2 0.00 0.64 0.64 83 1011.0
20260506213447 11 90 1.6 3.2 0.00 0.64 0.64 85 1010.9
20260506212425 11 90 1.6 3.2 0.00 0.64 0.64 85 1010.8
20260506211422 11 90 1.6 3.2 0.00 0.64 0.64 85 1010.8
20260506210441 11 105 1.6 3.2 0.00 0.64 0.64 85 1010.7
20260506205419 11 90 1.6 3.2 0.00 0.64 0.64 85 1010.5
20260506204417 11 90 1.6 3.2 0.00 0.64 0.64 85 1010.5
20260506203415 11 90 1.6 4.8 0.00 0.64 0.64 85 1010.6
20260506202413 11 90 1.6 3.2 0.00 0.64 0.64 85 1010.3
20260506201411 11 90 1.6 3.2 0.00 0.64 0.64 85 1010.0
20260506200409 11 90 1.6 3.2 0.00 0.64 0.64 85 1010.0
20260506195407 11 90 1.6 3.2 0.00 0.64 0.64 85 1010.0
20260506194425 11 90 1.6 3.2 0.00 0.64 0.64 84 1009.9
20260506193423 11 90 1.6 3.2 0.00 0.64 0.64 84 1009.8
20260506192401 12 90 1.6 3.2 0.00 0.64 0.64 84 1009.7
20260506191359 12 90 1.6 3.2 0.00 0.64 0.64 84 1009.6
20260506190358 12 90 1.6 3.2 0.00 0.64 0.64 84 1009.5
20260506185357 12 90 1.6 3.2 0.00 0.64 0.64 84 1009.5
20260506184353 12 90 1.6 3.2 0.00 0.64 0.64 83 1009.2
20260506183352 12 90 1.6 3.2 0.00 0.64 0.64 83 1009.2
20260506182350 12 90 1.6 3.2 0.00 0.64 0.64 82 1009.2
20260506181347 12 90 1.6 3.2 0.00 0.64 0.64 82 1009.2
20260506180345 13 116 1.6 3.2 0.00 0.64 0.64 81 1009.0
20260506175343 13 90 1.6 3.2 0.00 0.64 0.64 82 1009.0
20260506174354 13 90 1.6 3.2 0.00 0.64 0.64 82 1009.0
20260506173340 13 90 1.6 3.2 0.00 0.64 0.64 81 1008.7
20260506172356 13 90 1.6 3.2 0.00 0.64 0.64 80 1008.6
20260506171335 13 90 1.6 3.2 0.00 0.64 0.64 81 1008.4
20260506170353 13 90 1.6 3.2 0.00 0.64 0.64 82 1008.5
20260506165331 13 90 1.6 1.6 0.00 0.64 0.64 81 1008.5
20260506164349 13 90 1.6 3.2 0.00 0.64 0.64 81 1008.4